Location: Spruce Knob
(38.6995°N, 79.5330°W)
Time: 11:29:09
(UTC-05:00)

Tiangong - Visible Passes

Search period start: 11 December 2023 00:00
Search period end: 21 December 2023 00:00
Orbit: 372 x 383 km, 41.5° (Epoch: 11 December)

Date Brightness Start Highest point End Pass type
(mag) Time Alt. Az. Time Alt. Az. Time Alt. Az.
14 Dec 0.7 06:32:33 10° SSW 06:34:48 18° SSE 06:37:02 10° E visible
16 Dec -0.3 06:04:34 10° SW 06:07:20 29° SSE 06:10:05 10° E visible
17 Dec 0.8 05:06:16 15° SE 05:06:16 15° SE 05:07:32 10° ESE visible
17 Dec -2.2 06:38:43 10° WSW 06:41:49 82° SSE 06:44:56 10° ENE visible
18 Dec -1.4 05:39:49 48° SSE 05:39:49 48° SSE 05:42:49 10° E visible
19 Dec -2.3 06:13:09 33° W 06:14:21 71° NNW 06:17:27 10° ENE visible
20 Dec 0.5 05:14:15 20° ENE 05:14:15 20° ENE 05:15:20 10° ENE visible
20 Dec -1.8 06:46:19 12° WNW 06:49:02 48° N 06:52:03 10° ENE visible
